Regional Weather Roundup
Issued by NWS

Home | Current Version | Previous Version | Graphics & Text | Print | Product List | Glossary Off
Versions: 1 2 3 4 5 6 7 8 9 10 11 12 13 14 15 16 17 18 19 20 21 22 23 24 25 26 27 28 29 30 31 32 33 34 35 36 37 38 39 40 41 42 43 44 45 46 47 48 49 50

000
ASUS43 KDMX 042107
RWRIA

WEATHER ROUNDUP FOR IOWA
NATIONAL WEATHER SERVICE DES MOINES IA
400 PM CDT FRI SEP 04 2015

NOTE: "FAIR" INDICATES FEW OR NO CLOUDS BELOW 12,000 FEET WITH NO
SIGNIFICANT WEATHER AND/OR OBSTRUCTIONS TO VISIBILITY.

* - THESE STATIONS ARE NOT NWS STATIONS...THUS NOT UNDER NWS
QUALITY CONTROL.  THEY ALSO DO NOT REPORT WEATHER SUCH
AS PRECIPITATION OR FOG.

IAZ001>003-012>014-020>022-031>034-043>046-042200-
   NORTHWEST IOWA

CITY           SKY/WX    TMP DP  RH WIND       PRES   REMARKS
CARROLL *      SUNNY     84  73  70 S12       29.92F HX  91
CHEROKEE *       N/A     84  75  74 S14       29.89F HX  92
DENISON *      SUNNY     82  73  74 MISG      29.90S HX  88
LE MARS *      SUNNY     86  72  62 S15G24    29.86F HX  92
ORANGE CITY *  SUNNY     84  72  65 S13       29.87S HX  89
SHELDON *      PTSUNNY   81  73  78 SE8       29.88S HX  85
SIOUX CITY       N/A     87  71  58 S15G22    29.84F HX  93
SPENCER          N/A     81  71  71 SE10      29.90F HAZE    HX  85
STORM LAKE *   SUNNY     79  72  78 S9G15     29.92F HX  82
$$

IAZ055>058-069>071-079>083-090>094-042200-
   SOUTHWEST IOWA

CITY           SKY/WX    TMP DP  RH WIND       PRES   REMARKS
ATLANTIC *     SUNNY     84  72  65 S8        29.92S HX  89
AUDUBON *      SUNNY     86  73  66 S9        29.94S HX  93
CLARINDA *     SUNNY     88  72  58 S9        29.93S HX  94
COUNCIL BLFS * SUNNY     88  73  62 SE17      29.89F HX  96
CRESTON *      SUNNY     88  72  58 S12G22    29.96F HX  94
LAMONI           N/A     90  71  53 S9        29.95F HX  96
RED OAK *      MOSUNNY   84  72  65 SE8       29.91S HX  89
SHENANDOAH *   SUNNY     90  68  48 S12G22    29.90F HX  93
$$

IAZ047>049-059>061-072>074-084-042200-
   CENTRAL IOWA

CITY           SKY/WX    TMP DP  RH WIND       PRES   REMARKS
AMES             N/A     89  71  55 S9        29.93F HX  95
ANKENY *       SUNNY     88  70  55 S8G16     29.93S HX  92
CHARITON *     MOSUNNY   88  70  55 S14       29.96S HX  92
DES MOINES     PTSUNNY   89  70  53 S12       29.93S HX  94
GRINNELL*        N/A     90  70  51 S10       29.97S HX  95
KNOXVILLE *    MOSUNNY   88  70  55 S7G16     29.94S HX  92
MARSHALLTOWN     N/A     88  71  57 S13       29.94F HX  94
PELLA *          N/A     91  73  55 SW7       29.96S HX 100
PERRY *          N/A     90  72  55 S12       29.93S HX  96
$$

IAZ004>006-015-016-023>025-035-036-042200-
   NORTH CENTRAL IOWA

CITY           SKY/WX    TMP DP  RH WIND       PRES   REMARKS
ALGONA *       SUNNY     84  73  70 S8        29.93R HX  91
CLARION *      SUNNY     88  72  58 S13       29.93F HX  94
ESTHERVILLE      N/A     82  72  71 S8        29.91F HX  87
FORT DODGE *     N/A     84  72  65 S9        29.94R HX  89
MASON CITY       N/A     89  74  60 S14       29.95F HX  98
FOREST CITY *  SUNNY     86  70  58 S7        29.94S HX  90
IOWA FALLS *     N/A     90  73  58 S9        29.96S HX  98
$$

IAZ007>011-017>019-026>030-037>042-050>054-066-042200-
   NORTHEAST IOWA

CITY           SKY/WX    TMP DP  RH WIND       PRES   REMARKS
CEDAR RAPIDS     N/A     88  72  58 S7        29.96F HX  94
CHARLES CITY * MOSUNNY   88  75  66 S9        29.96S HX  97
CLINTON *        N/A     88  73  62 W3        30.00F HX  96
DECORAH *      SUNNY     86  72  62 S7        29.96F HX  92
DUBUQUE          N/A     87  71  58 SW8       29.99F HX  93
MONTICELLO *   MOSUNNY   90  70  51 S8        29.96F HX  95
OELWEIN *      SUNNY     88  72  58 S9        29.97S HX  94
WATERLOO         N/A     89  71  55 S15       29.94S HX  95
$$

IAZ064-065-067-068-078-042200-
   EAST CENTRAL IOWA

CITY           SKY/WX    TMP DP  RH WIND       PRES   REMARKS
DAVENPORT        N/A     90  70  51 VRB3      29.97F HX  95
IOWA CITY        N/A     90  68  48 S9        29.96F HX  94
MT. PLEASANT *   N/A     95  59  30 S6        29.96F HX  94
MUSCATINE *    MOSUNNY   95  66  38 SW13      29.95F HX  98
QUAD CITIES      N/A     92  69  47 SW9       29.96F HX  97
$$

IAZ062-063-075>077-085>089-095>099-042200-
   SOUTHEAST IOWA

CITY           SKY/WX    TMP DP  RH WIND       PRES   REMARKS
BURLINGTON       N/A     92  69  47 S7        29.97F HX  97
FAIRFIELD *    MOSUNNY   91  66  43 S10       29.96S HX  94
FORT MADISON * SUNNY     91  70  49 SW3       29.98S HX  97
KEOKUK *       SUNNY     93  68  43 SW8       29.96S HX  97
OSKALOOSA *      N/A     91  68  46 SE7       29.96F HX  95
CENTERVILLE *  SUNNY     88  72  58 S6        29.98F HX  94
OTTUMWA          N/A     90  72  55 S8        29.94F HX  97
WASHINGTON *     N/A    N/A N/A N/A MISG        N/A
$$

ABBREVIATIONS USED IN REMARKS
   TC - TEMPERATURES IN CELSIUS
  WCI - WIND CHILL INDEX
   HX - HEAT INDEX
  VSB - VISIBILITY
$$



USA.gov is the U.S. government's official web portal to all federal, state and local government web resources and services.